TVF31LG DTTJ-LFMN

Flight info

Callsign TVF31LG
Flight time 1h 43m
Altitude 36000
Route BISKO1A BISKO A411 SFX UA411 TUC UA725 OSMAR DCT PIRIX DCT CAR DCT GIGGI DCT UPDUT/N0455F300 DCT CORSI DCT BEBEV DCT OMEDA M622 LONSU
Aircraft A320/M-SDE3FGHIRWY/LB1

Departure

Time 2026-04-23 13:58
Airport Djerba Zarzis International Airport (DTTJ)

Arrival

Time 2026-04-23 15:42
Airport Nice-Côte d'Azur Airport (LFMN)
Time Latitude Longitude Altitude Speed Heading
2026-04-23 13:25 33.87320 10.77530 27 ft 0 kts 178°
2026-04-23 13:48 33.87327 10.77530 27 ft 4 kts 180°
2026-04-23 13:48 33.87354 10.77532 27 ft 4 kts 196°
2026-04-23 13:49 33.87377 10.77546 26 ft 4 kts 233°
2026-04-23 13:49 33.87383 10.77563 26 ft 1 kts 268°
2026-04-23 13:49 33.87383 10.77566 26 ft 0 kts 268°
2026-04-23 13:52 33.87383 10.77565 26 ft 1 kts 268°
2026-04-23 13:52 33.87382 10.77539 26 ft 5 kts 268°
2026-04-23 13:53 33.87381 10.77487 26 ft 7 kts 268°
2026-04-23 13:53 33.87380 10.77424 27 ft 8 kts 268°
2026-04-23 13:53 33.87378 10.77347 27 ft 10 kts 266°
2026-04-23 13:53 33.87365 10.77261 27 ft 11 kts 261°
2026-04-23 13:54 33.87364 10.77164 27 ft 12 kts 269°
2026-04-23 13:54 33.87358 10.77055 27 ft 14 kts 261°
2026-04-23 13:54 33.87358 10.76937 27 ft 15 kts 271°
2026-04-23 13:54 33.87356 10.76797 23 ft 18 kts 269°
2026-04-23 13:55 33.87350 10.76628 20 ft 22 kts 267°
2026-04-23 13:55 33.87344 10.76443 21 ft 23 kts 268°
2026-04-23 13:55 33.87342 10.76252 18 ft 23 kts 268°
2026-04-23 13:55 33.87340 10.76126 16 ft 12 kts 276°
2026-04-23 13:56 33.87367 10.76068 17 ft 12 kts 322°
2026-04-23 13:56 33.87395 10.76056 18 ft 0 kts 352°
2026-04-23 13:56 33.87400 10.76055 18 ft 4 kts 354°
2026-04-23 13:57 33.87453 10.76051 20 ft 8 kts 359°
2026-04-23 13:57 33.87489 10.76053 21 ft 7 kts 13°
2026-04-23 13:57 33.87504 10.76101 22 ft 7 kts 86°
2026-04-23 13:57 33.87509 10.76253 21 ft 45 kts 88°
2026-04-23 13:58 33.87527 10.76892 18 ft 105 kts 88°
2026-04-23 13:58 33.87556 10.77961 22 ft 149 kts 88°
2026-04-23 13:58 33.87595 10.79244 422 ft 152 kts 83°
2026-04-23 13:58 33.87785 10.80475 944 ft 148 kts 58°
2026-04-23 13:59 33.88428 10.81446 1420 ft 158 kts 38°
2026-04-23 13:59 33.89515 10.81953 1681 ft 183 kts
2026-04-23 13:59 33.90826 10.81555 1929 ft 212 kts 332°
2026-04-23 13:59 33.92064 10.80513 2414 ft 220 kts 329°
2026-04-23 14:00 33.93320 10.79446 3085 ft 221 kts 328°
2026-04-23 14:00 33.94594 10.78414 3758 ft 222 kts 337°
2026-04-23 14:00 33.96113 10.77876 4183 ft 233 kts 352°
2026-04-23 14:00 33.97739 10.77523 4782 ft 246 kts 352°
2026-04-23 14:01 33.99466 10.77149 5385 ft 257 kts 351°
2026-04-23 14:01 34.01239 10.76761 6164 ft 262 kts 350°
2026-04-23 14:01 34.03046 10.76364 6961 ft 264 kts 350°
2026-04-23 14:01 34.04867 10.75963 7765 ft 266 kts 349°
2026-04-23 14:02 34.06675 10.75566 8541 ft 269 kts 349°
2026-04-23 14:02 34.08528 10.75159 9327 ft 272 kts 349°
2026-04-23 14:02 34.10395 10.74749 10103 ft 274 kts 348°
2026-04-23 14:02 34.12315 10.74328 10473 ft 291 kts 348°
2026-04-23 14:03 34.14366 10.73875 10622 ft 313 kts 348°
2026-04-23 14:03 34.16600 10.73383 10858 ft 331 kts 348°
2026-04-23 14:03 34.18893 10.72881 11418 ft 337 kts 348°
2026-04-23 14:03 34.21213 10.72373 12050 ft 341 kts 348°
2026-04-23 14:04 34.23563 10.71859 12681 ft 345 kts 348°
2026-04-23 14:04 34.25933 10.71338 13318 ft 348 kts 347°
2026-04-23 14:04 34.28325 10.70812 13942 ft 351 kts 347°
2026-04-23 14:04 34.30743 10.70282 14501 ft 354 kts 347°
2026-04-23 14:05 34.33177 10.69745 15040 ft 357 kts 347°
2026-04-23 14:05 34.35632 10.69202 15578 ft 360 kts 347°
2026-04-23 14:05 34.38112 10.68652 16111 ft 363 kts 347°
2026-04-23 14:05 34.40609 10.68098 16652 ft 366 kts 347°
2026-04-23 14:06 34.43126 10.67539 17197 ft 370 kts 347°
2026-04-23 14:06 34.45668 10.66976 17756 ft 373 kts 347°
2026-04-23 14:06 34.48238 10.66408 18315 ft 376 kts 347°
2026-04-23 14:06 34.50794 10.65843 18815 ft 379 kts 347°
2026-04-23 14:07 34.53402 10.65267 19347 ft 382 kts 347°
2026-04-23 14:07 34.58666 10.64102 20414 ft 388 kts 347°
2026-04-23 14:07 34.61331 10.63509 20903 ft 391 kts 347°
2026-04-23 14:08 34.64018 10.62910 21369 ft 394 kts 347°
2026-04-23 14:08 34.66723 10.62308 21822 ft 397 kts 347°
2026-04-23 14:08 34.69451 10.61699 22250 ft 400 kts 347°
2026-04-23 14:08 34.72196 10.61087 22669 ft 403 kts 347°
2026-04-23 14:09 34.74965 10.60467 23089 ft 406 kts 347°
2026-04-23 14:09 34.77754 10.59845 23505 ft 409 kts 347°
2026-04-23 14:09 34.80559 10.59220 23875 ft 411 kts 347°
2026-04-23 14:09 34.83381 10.58595 24243 ft 412 kts 347°
2026-04-23 14:10 34.86208 10.57966 24604 ft 414 kts 347°
2026-04-23 14:10 34.89045 10.57332 24961 ft 415 kts 347°
2026-04-23 14:10 34.91890 10.56697 25311 ft 416 kts 347°
2026-04-23 14:10 34.94702 10.56068 25649 ft 417 kts 347°
2026-04-23 14:11 34.97565 10.55424 25993 ft 419 kts 347°
2026-04-23 14:11 35.00435 10.54780 26346 ft 420 kts 347°
2026-04-23 14:11 35.03319 10.54133 26690 ft 422 kts 347°
2026-04-23 14:11 35.06209 10.53483 27046 ft 423 kts 347°
2026-04-23 14:12 35.09113 10.52829 27387 ft 424 kts 347°
2026-04-23 14:12 35.12020 10.52174 27745 ft 425 kts 347°
2026-04-23 14:12 35.14924 10.51521 28193 ft 423 kts 347°
2026-04-23 14:12 35.17814 10.50872 28679 ft 421 kts 346°
2026-04-23 14:13 35.20696 10.50223 29164 ft 420 kts 346°
2026-04-23 14:13 35.23557 10.49576 29650 ft 418 kts 346°
2026-04-23 14:13 35.26416 10.48932 30139 ft 416 kts 346°
2026-04-23 14:13 35.29260 10.48292 30551 ft 414 kts 346°
2026-04-23 14:14 35.32051 10.47662 30998 ft 412 kts 346°
2026-04-23 14:14 35.34868 10.47028 31439 ft 410 kts 346°
2026-04-23 14:14 35.37667 10.46397 31851 ft 409 kts 346°
2026-04-23 14:14 35.40462 10.45765 32264 ft 407 kts 346°
2026-04-23 14:15 35.43241 10.45133 32678 ft 406 kts 345°
2026-04-23 14:15 35.46017 10.44501 33077 ft 405 kts 345°
2026-04-23 14:15 35.48783 10.43872 33481 ft 404 kts 345°
2026-04-23 14:15 35.51541 10.43245 33888 ft 402 kts 345°
2026-04-23 14:16 35.54286 10.42621 34245 ft 401 kts 345°
2026-04-23 14:16 35.57030 10.41998 34562 ft 400 kts 345°
2026-04-23 14:16 35.59767 10.41377 34869 ft 399 kts 345°
2026-04-23 14:16 35.62493 10.40761 35169 ft 399 kts 346°
2026-04-23 14:17 35.65220 10.40140 35456 ft 398 kts 345°
2026-04-23 14:17 35.67942 10.39518 35732 ft 397 kts 345°
2026-04-23 14:17 35.70660 10.38894 35984 ft 397 kts 345°
2026-04-23 14:17 35.73382 10.38268 36070 ft 399 kts 345°
2026-04-23 14:18 35.78920 10.36995 36082 ft 409 kts 346°
2026-04-23 14:18 35.84524 10.35712 36084 ft 409 kts 346°
2026-04-23 14:19 35.90121 10.34436 36088 ft 409 kts 345°
2026-04-23 14:19 35.95716 10.33153 36082 ft 409 kts 345°
2026-04-23 14:20 36.01309 10.31870 36091 ft 409 kts 345°
2026-04-23 14:20 36.06873 10.30587 36131 ft 409 kts 345°
2026-04-23 14:21 36.12465 10.29301 36120 ft 408 kts 345°
2026-04-23 14:21 36.18046 10.28009 36116 ft 408 kts 345°
2026-04-23 14:22 36.23630 10.26712 36116 ft 407 kts 345°
2026-04-23 14:22 36.29200 10.25419 36115 ft 407 kts 345°
2026-04-23 14:23 36.34737 10.24138 36129 ft 407 kts 345°
2026-04-23 14:23 36.40298 10.22849 36123 ft 406 kts 345°
2026-04-23 14:24 36.45855 10.21559 36121 ft 406 kts 345°
2026-04-23 14:24 36.51414 10.20269 36108 ft 406 kts 345°
2026-04-23 14:25 36.56967 10.18965 36134 ft 406 kts 345°
2026-04-23 14:25 36.62513 10.17662 36136 ft 405 kts 345°
2026-04-23 14:26 36.68054 10.16372 36134 ft 404 kts 345°
2026-04-23 14:26 36.73582 10.15087 36129 ft 404 kts 345°
2026-04-23 14:27 36.79108 10.13787 36125 ft 404 kts 345°
2026-04-23 14:27 36.84586 10.12492 36140 ft 403 kts 345°
2026-04-23 14:28 36.90100 10.11196 36135 ft 403 kts 345°
2026-04-23 14:28 36.95605 10.09905 36132 ft 402 kts 345°
2026-04-23 14:29 37.01105 10.08606 36131 ft 402 kts 345°
2026-04-23 14:29 37.06607 10.07308 36152 ft 402 kts 345°
2026-04-23 14:30 37.12109 10.06002 36160 ft 402 kts 345°
2026-04-23 14:30 37.17600 10.04695 36155 ft 402 kts 345°
2026-04-23 14:31 37.23094 10.03392 36151 ft 401 kts 345°
2026-04-23 14:31 37.28585 10.02086 36144 ft 401 kts 345°
2026-04-23 14:32 37.34041 10.00783 36163 ft 401 kts 345°
2026-04-23 14:32 37.39526 9.99477 36163 ft 400 kts 345°
2026-04-23 14:33 37.45003 9.98170 36158 ft 400 kts 345°
2026-04-23 14:33 37.50474 9.96860 36156 ft 400 kts 345°
2026-04-23 14:34 37.55952 9.95548 36177 ft 400 kts 345°
2026-04-23 14:34 37.61415 9.94238 36170 ft 399 kts 344°
2026-04-23 14:35 37.66830 9.92935 36163 ft 399 kts 345°
2026-04-23 14:35 37.72280 9.91628 36150 ft 398 kts 345°
2026-04-23 14:36 37.77739 9.90314 36189 ft 398 kts 344°
2026-04-23 14:36 37.83174 9.89000 36174 ft 396 kts 344°
2026-04-23 14:37 37.88597 9.87686 36171 ft 396 kts 344°
2026-04-23 14:37 37.93975 9.86385 36168 ft 396 kts 344°
2026-04-23 14:38 37.99393 9.85078 36164 ft 396 kts 344°
2026-04-23 14:38 38.04805 9.83765 36156 ft 395 kts 344°
2026-04-23 14:39 38.10212 9.82456 36140 ft 395 kts 345°
2026-04-23 14:39 38.15627 9.81129 36138 ft 396 kts 345°
2026-04-23 14:40 38.21040 9.79805 36143 ft 396 kts 345°
2026-04-23 14:40 38.26418 9.78473 36179 ft 395 kts 343°
2026-04-23 14:41 38.31757 9.76845 36164 ft 393 kts 341°
2026-04-23 14:41 38.37051 9.75054 36171 ft 393 kts 341°
2026-04-23 14:42 38.42346 9.73292 36162 ft 393 kts 341°
2026-04-23 14:42 38.47656 9.71580 36162 ft 393 kts 341°
2026-04-23 14:43 38.52935 9.69895 36186 ft 392 kts 341°
2026-04-23 14:43 38.58229 9.68192 36186 ft 391 kts 341°
2026-04-23 14:44 38.63474 9.66495 36183 ft 390 kts 341°
2026-04-23 14:44 38.68744 9.64788 36179 ft 390 kts 341°
2026-04-23 14:45 38.73111 9.63374 36200 ft 389 kts 341°
2026-04-23 14:45 38.78365 9.61665 36190 ft 389 kts 341°
2026-04-23 14:46 38.83610 9.59955 36184 ft 388 kts 341°
2026-04-23 14:46 38.88845 9.58251 36179 ft 388 kts 341°
2026-04-23 14:47 38.94070 9.56534 36173 ft 387 kts 341°
2026-04-23 14:47 38.99294 9.54785 36185 ft 387 kts 341°
2026-04-23 14:48 39.04507 9.53035 36184 ft 387 kts 341°
2026-04-23 14:48 39.09691 9.51290 36179 ft 387 kts 341°
2026-04-23 14:49 39.14927 9.49605 36185 ft 388 kts 342°
2026-04-23 14:49 39.20196 9.48071 36191 ft 388 kts 343°
2026-04-23 14:50 39.25476 9.46552 36185 ft 388 kts 343°
2026-04-23 14:50 39.30744 9.44999 36175 ft 388 kts 342°
2026-04-23 14:51 39.36006 9.43424 36174 ft 388 kts 342°
2026-04-23 14:51 39.41275 9.41852 36188 ft 388 kts 342°
2026-04-23 14:52 39.46538 9.40280 36202 ft 387 kts 342°
2026-04-23 14:52 39.51787 9.38712 36192 ft 387 kts 343°
2026-04-23 14:53 39.56998 9.37153 36162 ft 387 kts 342°
2026-04-23 14:53 39.62242 9.35580 36165 ft 387 kts 342°
2026-04-23 14:54 39.67486 9.33994 36179 ft 387 kts 343°
2026-04-23 14:54 39.72734 9.32413 36172 ft 387 kts 343°
2026-04-23 14:55 39.77988 9.30835 36168 ft 387 kts 343°
2026-04-23 14:55 39.83240 9.29253 36164 ft 387 kts 343°
2026-04-23 14:56 39.88495 9.27661 36188 ft 387 kts 343°
2026-04-23 14:56 39.93749 9.26074 36175 ft 388 kts 343°
2026-04-23 14:57 39.99013 9.24474 36169 ft 388 kts 343°
2026-04-23 14:57 40.04278 9.22875 36160 ft 388 kts 343°
2026-04-23 14:58 40.09537 9.21269 36160 ft 388 kts 343°
2026-04-23 14:58 40.14776 9.19673 36178 ft 389 kts 343°
2026-04-23 14:59 40.20047 9.18061 36179 ft 389 kts 343°
2026-04-23 14:59 40.25327 9.16445 36178 ft 390 kts 343°
2026-04-23 15:00 40.30608 9.14820 36182 ft 390 kts 343°
2026-04-23 15:00 40.35880 9.13162 36185 ft 390 kts 343°
2026-04-23 15:01 40.41155 9.11492 36188 ft 390 kts 343°
2026-04-23 15:01 40.46442 9.09835 36187 ft 390 kts 343°
2026-04-23 15:02 40.51723 9.08175 36164 ft 390 kts 343°
2026-04-23 15:02 40.56999 9.06510 36192 ft 390 kts 343°
2026-04-23 15:03 40.62287 9.04843 36188 ft 391 kts 343°
2026-04-23 15:03 40.67584 9.03167 36190 ft 392 kts 343°
2026-04-23 15:04 40.72854 9.01503 36191 ft 392 kts 343°
2026-04-23 15:04 40.78159 8.99823 36205 ft 392 kts 343°
2026-04-23 15:05 40.83473 8.98130 36194 ft 393 kts 344°
2026-04-23 15:05 40.88803 8.96433 36190 ft 394 kts 344°
2026-04-23 15:06 40.94136 8.94736 36193 ft 395 kts 344°
2026-04-23 15:06 40.99480 8.93035 36187 ft 395 kts 344°
2026-04-23 15:07 41.04822 8.91326 36184 ft 396 kts 344°
2026-04-23 15:07 41.10183 8.89606 36180 ft 396 kts 344°
2026-04-23 15:08 41.15552 8.87888 36180 ft 397 kts 344°
2026-04-23 15:09 41.23618 8.85290 36191 ft 398 kts 345°
2026-04-23 15:09 41.28929 8.83338 36173 ft 399 kts 341°
2026-04-23 15:10 41.33349 8.81366 36171 ft 400 kts 340°
2026-04-23 15:10 41.39504 8.78652 36176 ft 401 kts 341°
2026-04-23 15:11 41.44844 8.76468 36182 ft 402 kts 342°
2026-04-23 15:11 41.50213 8.74307 36164 ft 404 kts 342°
2026-04-23 15:12 41.55593 8.72109 36161 ft 405 kts 342°
2026-04-23 15:12 41.60975 8.69881 36167 ft 404 kts 341°
2026-04-23 15:13 41.66340 8.67652 36199 ft 404 kts 342°
2026-04-23 15:13 41.71726 8.65425 36175 ft 405 kts 342°
2026-04-23 15:14 41.77128 8.63197 36172 ft 407 kts 342°
2026-04-23 15:14 41.82541 8.60950 36169 ft 407 kts 342°
2026-04-23 15:15 41.87953 8.58678 36174 ft 408 kts 343°
2026-04-23 15:15 41.93384 8.56413 36159 ft 409 kts 342°
2026-04-23 15:16 41.98839 8.54144 36156 ft 411 kts 342°
2026-04-23 15:16 42.04271 8.51879 36163 ft 411 kts 342°
2026-04-23 15:17 42.09714 8.49597 36190 ft 408 kts 343°
2026-04-23 15:17 42.15133 8.47318 36180 ft 408 kts 343°
2026-04-23 15:18 42.20562 8.45020 35269 ft 414 kts 341°
2026-04-23 15:18 42.23233 8.43453 33656 ft 425 kts 333°
2026-04-23 15:18 42.25820 8.41520 31867 ft 435 kts 333°
2026-04-23 15:18 42.28492 8.39510 30004 ft 446 kts 333°
2026-04-23 15:19 42.31235 8.37446 28094 ft 452 kts 332°
2026-04-23 15:19 42.33968 8.35390 27069 ft 442 kts 334°
2026-04-23 15:19 42.36572 8.33426 26725 ft 416 kts 334°
2026-04-23 15:19 42.39053 8.31560 26109 ft 401 kts 333°
2026-04-23 15:20 42.40679 8.30337 25715 ft 392 kts 333°
2026-04-23 15:20 42.43839 8.27969 24950 ft 393 kts 333°
2026-04-23 15:20 42.46240 8.26174 24356 ft 394 kts 333°
2026-04-23 15:20 42.48640 8.24378 23772 ft 395 kts 334°
2026-04-23 15:21 42.51044 8.22574 23109 ft 395 kts 333°
2026-04-23 15:21 42.53448 8.20765 22565 ft 394 kts 334°
2026-04-23 15:21 42.55838 8.18959 21999 ft 393 kts 333°
2026-04-23 15:21 42.58224 8.17153 21473 ft 392 kts 333°
2026-04-23 15:22 42.60572 8.15378 20948 ft 391 kts 334°
2026-04-23 15:22 42.62941 8.13588 20443 ft 389 kts 334°
2026-04-23 15:22 42.65300 8.11803 19940 ft 387 kts 334°
2026-04-23 15:22 42.67643 8.10029 19441 ft 385 kts 334°
2026-04-23 15:23 42.69978 8.08258 18942 ft 383 kts 333°
2026-04-23 15:23 42.72304 8.06493 18419 ft 382 kts 335°
2026-04-23 15:23 42.74638 8.04789 17844 ft 378 kts 338°
2026-04-23 15:23 42.77088 8.03598 17336 ft 371 kts 348°
2026-04-23 15:24 42.79608 8.03035 16941 ft 364 kts 358°
2026-04-23 15:24 42.82152 8.03077 16666 ft 365 kts
2026-04-23 15:24 42.84670 8.03451 16366 ft 365 kts
2026-04-23 15:24 42.87200 8.03826 16058 ft 363 kts
2026-04-23 15:25 42.89703 8.04200 15754 ft 361 kts
2026-04-23 15:25 42.92199 8.04575 15444 ft 360 kts
2026-04-23 15:25 42.93841 8.04822 15241 ft 358 kts
2026-04-23 15:25 42.97156 8.05317 14836 ft 357 kts
2026-04-23 15:26 42.99625 8.05681 14534 ft 356 kts
2026-04-23 15:26 43.02083 8.06043 14230 ft 354 kts
2026-04-23 15:26 43.04495 8.06403 13936 ft 353 kts
2026-04-23 15:26 43.06928 8.06773 13626 ft 351 kts
2026-04-23 15:27 43.09351 8.07135 13336 ft 350 kts
2026-04-23 15:27 43.11775 8.06923 13067 ft 352 kts 348°
2026-04-23 15:27 43.14038 8.05614 12804 ft 356 kts 329°
2026-04-23 15:27 43.15856 8.03296 12536 ft 362 kts 309°
2026-04-23 15:28 43.17087 8.00273 12287 ft 365 kts 298°
2026-04-23 15:28 43.18189 7.97153 12031 ft 364 kts 298°
2026-04-23 15:28 43.19282 7.94039 11760 ft 362 kts 298°
2026-04-23 15:28 43.20369 7.90931 11519 ft 360 kts 298°
2026-04-23 15:29 43.21451 7.87839 11272 ft 359 kts 298°
2026-04-23 15:29 43.22530 7.84761 11032 ft 358 kts 298°
2026-04-23 15:29 43.23604 7.81693 10788 ft 356 kts 298°
2026-04-23 15:29 43.24676 7.78638 10544 ft 355 kts 298°
2026-04-23 15:30 43.25727 7.75636 10306 ft 353 kts 298°
2026-04-23 15:30 43.26795 7.72582 10104 ft 344 kts 298°
2026-04-23 15:30 43.27807 7.69683 9969 ft 330 kts 298°
2026-04-23 15:30 43.28780 7.66891 9837 ft 318 kts 298°
2026-04-23 15:31 43.29704 7.64235 9703 ft 307 kts 298°
2026-04-23 15:31 43.30609 7.61633 9572 ft 297 kts 299°
2026-04-23 15:31 43.31495 7.59091 9443 ft 294 kts 298°
2026-04-23 15:31 43.32373 7.56565 9296 ft 292 kts 298°
2026-04-23 15:32 43.33247 7.54046 9175 ft 291 kts 298°
2026-04-23 15:32 43.34117 7.51536 9024 ft 291 kts 298°
2026-04-23 15:32 43.34998 7.49000 8573 ft 295 kts 298°
2026-04-23 15:32 43.35873 7.46480 8295 ft 290 kts 298°
2026-04-23 15:33 43.36734 7.43992 7701 ft 287 kts 299°
2026-04-23 15:33 43.37589 7.41517 7098 ft 285 kts 299°
2026-04-23 15:33 43.38435 7.39064 6490 ft 284 kts 298°
2026-04-23 15:33 43.39274 7.36629 5937 ft 279 kts 298°
2026-04-23 15:34 43.39820 7.35043 5591 ft 276 kts 297°
2026-04-23 15:34 43.40631 7.32682 5097 ft 270 kts 297°
2026-04-23 15:34 43.41426 7.30364 4653 ft 263 kts 296°
2026-04-23 15:34 43.42412 7.27485 4477 ft 238 kts 297°
2026-04-23 15:35 43.43095 7.25487 4380 ft 226 kts 296°
2026-04-23 15:35 43.43749 7.23573 4283 ft 216 kts 297°
2026-04-23 15:35 43.44176 7.22326 4217 ft 209 kts 297°
2026-04-23 15:35 43.44777 7.20572 4142 ft 201 kts 297°
2026-04-23 15:36 43.45361 7.18873 4070 ft 187 kts 297°
2026-04-23 15:36 43.46066 7.17483 3969 ft 173 kts 318°
2026-04-23 15:36 43.47012 7.16583 3853 ft 160 kts 336°
2026-04-23 15:36 43.48052 7.16173 3603 ft 152 kts 354°
2026-04-23 15:37 43.49093 7.16076 3402 ft 149 kts 357°
2026-04-23 15:37 43.50122 7.15976 3190 ft 148 kts 357°
2026-04-23 15:37 43.51146 7.15877 2977 ft 146 kts 357°
2026-04-23 15:37 43.52164 7.15782 2788 ft 146 kts 357°
2026-04-23 15:38 43.53177 7.15691 2591 ft 146 kts 358°
2026-04-23 15:38 43.54195 7.15601 2394 ft 146 kts 357°
2026-04-23 15:38 43.55216 7.15511 2196 ft 147 kts 357°
2026-04-23 15:38 43.56233 7.15421 2062 ft 147 kts 357°
2026-04-23 15:39 43.57257 7.15330 1860 ft 147 kts 358°
2026-04-23 15:39 43.58266 7.15240 1642 ft 147 kts 357°
2026-04-23 15:39 43.59290 7.15149 1422 ft 148 kts 358°
2026-04-23 15:39 43.60315 7.15095 1205 ft 147 kts 359°
2026-04-23 15:40 43.61347 7.15191 975 ft 153 kts 22°
2026-04-23 15:40 43.62143 7.16095 854 ft 149 kts 56°
2026-04-23 15:40 43.62865 7.17168 754 ft 151 kts 42°
2026-04-23 15:40 43.63645 7.18129 668 ft 150 kts 44°
2026-04-23 15:41 43.64369 7.19146 452 ft 148 kts 49°
2026-04-23 15:41 43.65061 7.20206 169 ft 148 kts 49°
2026-04-23 15:41 43.65757 7.21197 24 ft 139 kts 46°
2026-04-23 15:41 43.66332 7.21986 23 ft 92 kts 45°
2026-04-23 15:42 43.66637 7.22406 20 ft 28 kts 42°
2026-04-23 15:42 43.66744 7.22481 20 ft 17 kts 336°
2026-04-23 15:42 43.66803 7.22409 20 ft 0 kts 316°
2026-04-23 15:43 43.66805 7.22407 20 ft 1 kts 315°
2026-04-23 15:43 43.66815 7.22393 21 ft 3 kts 311°
2026-04-23 15:43 43.66821 7.22360 21 ft 4 kts 263°
2026-04-23 15:43 43.66806 7.22317 21 ft 6 kts 230°
2026-04-23 15:44 43.66768 7.22266 21 ft 9 kts 225°
2026-04-23 15:44 43.66716 7.22194 21 ft 12 kts 225°
2026-04-23 15:44 43.66650 7.22103 21 ft 15 kts 225°
2026-04-23 15:44 43.66587 7.22014 21 ft 13 kts 225°
2026-04-23 15:45 43.66516 7.21917 21 ft 16 kts 224°
2026-04-23 15:45 43.66432 7.21804 21 ft 18 kts 224°
2026-04-23 15:45 43.66346 7.21686 21 ft 12 kts 225°
2026-04-23 15:45 43.66294 7.21613 21 ft 12 kts 225°
2026-04-23 15:46 43.66229 7.21522 21 ft 15 kts 225°
2026-04-23 15:46 43.66149 7.21413 21 ft 17 kts 225°
2026-04-23 15:46 43.66058 7.21289 21 ft 20 kts 224°
2026-04-23 15:46 43.65978 7.21181 21 ft 12 kts 224°
2026-04-23 15:47 43.65911 7.21087 21 ft 15 kts 226°
2026-04-23 15:47 43.65831 7.20977 21 ft 18 kts 222°
2026-04-23 15:47 43.65795 7.20891 21 ft 9 kts 278°
2026-04-23 15:47 43.65851 7.20852 21 ft 10 kts 351°
2026-04-23 15:48 43.65911 7.20839 21 ft 7 kts 350°
2026-04-23 15:48 43.65942 7.20818 22 ft 5 kts 307°
2026-04-23 15:48 43.65951 7.20760 21 ft 6 kts 281°
2026-04-23 15:48 43.65954 7.20736 21 ft 1 kts 283°
2026-04-23 15:49 43.65956 7.20725 21 ft 0 kts 283°